View from above orbital plane
|
View from above satellite
|
Ground track
|
The orbit data is extracted from the following two-line orbital elements,
1 39132U 13015C 21016.24838626 .00000467 00000-0 42052-4 0 9991
2 39132 64.8803 80.5171 0024585 223.2834 200.2837 15.07794340425787
Epoch (UTC): | 16 January 2021 05:57:40 |
Eccentricity: | 0.0024585 |
inclination: | 64.8803° |
perigee height: | 526 km |
apogee height: | 560 km |
right ascension of ascending node: | 80.5171° |
argument of perigee: | 223.2834° |
revolutions per day: | 15.07794340 |
mean anomaly at epoch: | 200.2837° |
orbit number at epoch: | 42578 |
The dashed part of the orbit path shows where the satellite is in the earth's shadow,
|
|